IGO1184 VCBI-VOBL

Flight info

Callsign IGO1184
Flight time 1h 8m
Altitude 32000
Route ATETA1D ATETA T4 TTR W42 ADKAL ADKAL7E
Aircraft A320/M-SDE3FGHIRWY/LB1

Departure

Time 2026-05-06 12:56
Airport Bandaranaike International Colombo Airport (VCBI)

Arrival

Time 2026-05-06 14:05
Airport Kempegowda International Airport Bengaluru (VOBL)
Time Latitude Longitude Altitude Speed Heading
2026-05-06 12:01 7.17619 79.88420 28 ft 0 kts 37°
2026-05-06 12:46 7.17602 79.88407 27 ft 4 kts 35°
2026-05-06 12:47 7.17580 79.88392 27 ft 4 kts 30°
2026-05-06 12:47 7.17555 79.88380 27 ft 4 kts 14°
2026-05-06 12:47 7.17532 79.88379 27 ft 3 kts 313°
2026-05-06 12:47 7.17530 79.88382 27 ft 0 kts 307°
2026-05-06 12:50 7.17530 79.88381 27 ft 0 kts 307°
2026-05-06 12:51 7.17536 79.88374 27 ft 2 kts 307°
2026-05-06 12:51 7.17549 79.88357 27 ft 4 kts 307°
2026-05-06 12:51 7.17569 79.88329 27 ft 6 kts 307°
2026-05-06 12:51 7.17598 79.88292 27 ft 8 kts 307°
2026-05-06 12:52 7.17643 79.88259 28 ft 9 kts 351°
2026-05-06 12:52 7.17698 79.88282 28 ft 9 kts 38°
2026-05-06 12:52 7.17755 79.88326 28 ft 11 kts 37°
2026-05-06 12:52 7.17832 79.88385 27 ft 20 kts 37°
2026-05-06 12:53 7.17954 79.88479 27 ft 23 kts 37°
2026-05-06 12:53 7.18089 79.88581 27 ft 25 kts 37°
2026-05-06 12:53 7.18232 79.88692 27 ft 27 kts 37°
2026-05-06 12:53 7.18386 79.88808 27 ft 29 kts 37°
2026-05-06 12:54 7.18548 79.88932 28 ft 30 kts 37°
2026-05-06 12:54 7.18717 79.89061 28 ft 32 kts 37°
2026-05-06 12:54 7.18896 79.89198 27 ft 33 kts 37°
2026-05-06 12:54 7.19084 79.89341 27 ft 34 kts 37°
2026-05-06 12:55 7.19231 79.89377 27 ft 19 kts 300°
2026-05-06 12:55 7.19265 79.89318 27 ft 10 kts 302°
2026-05-06 12:55 7.19265 79.89252 27 ft 11 kts 229°
2026-05-06 12:55 7.19193 79.89199 28 ft 23 kts 217°
2026-05-06 12:56 7.18875 79.88955 30 ft 89 kts 217°
2026-05-06 12:56 7.18242 79.88471 27 ft 137 kts 217°
2026-05-06 12:56 7.17381 79.87808 111 ft 168 kts 217°
2026-05-06 12:56 7.16489 79.87132 850 ft 154 kts 216°
2026-05-06 12:57 7.15768 79.86369 1476 ft 150 kts 242°
2026-05-06 12:57 7.15736 79.85295 1795 ft 169 kts 286°
2026-05-06 12:57 7.16159 79.84108 1995 ft 191 kts 286°
2026-05-06 12:57 7.16442 79.83234 2112 ft 205 kts 285°
2026-05-06 12:58 7.16882 79.81790 2341 ft 225 kts 286°
2026-05-06 12:58 7.17776 79.80413 2637 ft 248 kts 320°
2026-05-06 12:58 7.19385 79.79743 3216 ft 258 kts 354°
2026-05-06 12:58 7.21186 79.80087 3645 ft 275 kts 28°
2026-05-06 12:59 7.22818 79.81125 4399 ft 279 kts 37°
2026-05-06 12:59 7.24362 79.82320 5236 ft 281 kts 39°
2026-05-06 12:59 7.25877 79.83565 6076 ft 281 kts 40°
2026-05-06 12:59 7.27397 79.84818 6857 ft 283 kts 39°
2026-05-06 13:00 7.28940 79.86068 7606 ft 286 kts 39°
2026-05-06 13:00 7.30510 79.87315 8341 ft 289 kts 38°
2026-05-06 13:00 7.32102 79.88560 9081 ft 292 kts 37°
2026-05-06 13:00 7.33725 79.89805 9784 ft 295 kts 34°
2026-05-06 13:01 7.35537 79.90787 10398 ft 299 kts 21°
2026-05-06 13:01 7.37609 79.91358 10564 ft 320 kts
2026-05-06 13:01 7.39908 79.91471 10686 ft 341 kts
2026-05-06 13:01 7.42342 79.91518 10917 ft 356 kts
2026-05-06 13:02 7.44836 79.91576 11399 ft 361 kts
2026-05-06 13:02 7.47365 79.91640 11939 ft 365 kts
2026-05-06 13:02 7.49917 79.91710 12485 ft 368 kts
2026-05-06 13:02 7.52465 79.91782 13023 ft 372 kts
2026-05-06 13:03 7.55057 79.91856 13559 ft 375 kts
2026-05-06 13:03 7.57684 79.91928 14046 ft 378 kts
2026-05-06 13:03 7.60319 79.91997 14513 ft 381 kts
2026-05-06 13:03 7.62978 79.92068 14997 ft 383 kts
2026-05-06 13:04 7.65649 79.92141 15469 ft 386 kts
2026-05-06 13:04 7.68344 79.92214 15937 ft 388 kts
2026-05-06 13:04 7.71058 79.92284 16397 ft 391 kts
2026-05-06 13:04 7.73791 79.92355 16855 ft 394 kts
2026-05-06 13:05 7.76538 79.92427 17307 ft 397 kts
2026-05-06 13:05 7.79310 79.92501 17765 ft 400 kts
2026-05-06 13:05 7.82102 79.92577 18188 ft 403 kts
2026-05-06 13:05 7.84912 79.92650 18570 ft 405 kts 359°
2026-05-06 13:06 7.87714 79.92426 18949 ft 405 kts 349°
2026-05-06 13:06 7.90500 79.91894 19350 ft 407 kts 348°
2026-05-06 13:06 7.93286 79.91354 19753 ft 409 kts 348°
2026-05-06 13:06 7.96094 79.90810 20144 ft 412 kts 348°
2026-05-06 13:07 7.98910 79.90265 20545 ft 414 kts 348°
2026-05-06 13:07 8.01747 79.89716 20929 ft 416 kts 348°
2026-05-06 13:07 8.04599 79.89164 21300 ft 418 kts 348°
2026-05-06 13:07 8.07465 79.88609 21660 ft 420 kts 348°
2026-05-06 13:08 8.10348 79.88054 22023 ft 423 kts 348°
2026-05-06 13:08 8.13238 79.87497 22376 ft 425 kts 348°
2026-05-06 13:08 8.16149 79.86938 22715 ft 427 kts 348°
2026-05-06 13:08 8.19075 79.86374 23056 ft 429 kts 348°
2026-05-06 13:09 8.22015 79.85807 23388 ft 431 kts 349°
2026-05-06 13:09 8.24962 79.85243 23665 ft 433 kts 349°
2026-05-06 13:09 8.27929 79.84678 23939 ft 434 kts 349°
2026-05-06 13:09 8.30909 79.84114 24212 ft 436 kts 349°
2026-05-06 13:10 8.33901 79.83549 24484 ft 438 kts 349°
2026-05-06 13:10 8.36898 79.82981 24752 ft 440 kts 349°
2026-05-06 13:10 8.39922 79.82408 25011 ft 442 kts 349°
2026-05-06 13:10 8.42946 79.81834 25285 ft 444 kts 349°
2026-05-06 13:11 8.45988 79.81255 25538 ft 446 kts 349°
2026-05-06 13:11 8.49035 79.80674 25799 ft 447 kts 349°
2026-05-06 13:11 8.52108 79.80086 26050 ft 449 kts 349°
2026-05-06 13:11 8.55187 79.79497 26306 ft 451 kts 349°
2026-05-06 13:12 8.58278 79.78907 26557 ft 453 kts 349°
2026-05-06 13:12 8.61382 79.78314 26802 ft 455 kts 349°
2026-05-06 13:12 8.64493 79.77722 27040 ft 457 kts 349°
2026-05-06 13:12 8.67630 79.77122 27287 ft 459 kts 349°
2026-05-06 13:13 8.70732 79.76528 27529 ft 460 kts 349°
2026-05-06 13:13 8.73888 79.75927 27775 ft 462 kts 349°
2026-05-06 13:13 8.77047 79.75325 28052 ft 463 kts 349°
2026-05-06 13:13 8.80211 79.74723 28411 ft 462 kts 349°
2026-05-06 13:14 8.83370 79.74124 28766 ft 461 kts 349°
2026-05-06 13:14 8.86527 79.73524 29131 ft 461 kts 349°
2026-05-06 13:14 8.89679 79.72924 29493 ft 461 kts 349°
2026-05-06 13:14 8.92829 79.72323 29851 ft 460 kts 349°
2026-05-06 13:15 8.95977 79.71722 30162 ft 460 kts 349°
2026-05-06 13:15 8.99124 79.71121 30476 ft 460 kts 349°
2026-05-06 13:15 9.02258 79.70519 30802 ft 459 kts 349°
2026-05-06 13:15 9.05394 79.69915 31134 ft 458 kts 349°
2026-05-06 13:16 9.08527 79.69314 31466 ft 458 kts 349°
2026-05-06 13:16 9.11651 79.68719 31734 ft 458 kts 349°
2026-05-06 13:16 9.14797 79.68118 31800 ft 461 kts 349°
2026-05-06 13:17 9.21149 79.66907 31808 ft 466 kts 349°
2026-05-06 13:17 9.27533 79.65691 31803 ft 467 kts 349°
2026-05-06 13:18 9.33684 79.63623 31802 ft 467 kts 332°
2026-05-06 13:18 9.39220 79.60180 31804 ft 467 kts 328°
2026-05-06 13:19 9.44733 79.56686 31803 ft 468 kts 328°
2026-05-06 13:19 9.50253 79.53185 31817 ft 468 kts 328°
2026-05-06 13:20 9.55776 79.49690 31804 ft 468 kts 328°
2026-05-06 13:20 9.61298 79.46193 31805 ft 468 kts 328°
2026-05-06 13:21 9.66819 79.42693 31804 ft 468 kts 328°
2026-05-06 13:21 9.72341 79.39189 31795 ft 468 kts 327°
2026-05-06 13:22 9.77835 79.35696 31796 ft 469 kts 327°
2026-05-06 13:22 9.83357 79.32180 31786 ft 469 kts 327°
2026-05-06 13:23 9.88889 79.28663 31797 ft 470 kts 327°
2026-05-06 13:23 9.94434 79.25140 31793 ft 470 kts 327°
2026-05-06 13:24 9.99986 79.21616 31790 ft 471 kts 327°
2026-05-06 13:24 10.05535 79.18088 31790 ft 471 kts 327°
2026-05-06 13:25 10.11084 79.14544 31788 ft 472 kts 327°
2026-05-06 13:25 10.16647 79.10994 31787 ft 472 kts 327°
2026-05-06 13:26 10.22215 79.07448 31787 ft 473 kts 327°
2026-05-06 13:26 10.27801 79.03900 31788 ft 474 kts 327°
2026-05-06 13:27 10.33388 79.00339 31788 ft 474 kts 327°
2026-05-06 13:27 10.38969 78.96770 31785 ft 474 kts 327°
2026-05-06 13:28 10.44567 78.93201 31789 ft 475 kts 327°
2026-05-06 13:28 10.50167 78.89621 31790 ft 476 kts 327°
2026-05-06 13:29 10.55771 78.86033 31792 ft 476 kts 327°
2026-05-06 13:29 10.61347 78.82476 31789 ft 476 kts 327°
2026-05-06 13:30 10.66955 78.78898 31780 ft 476 kts 327°
2026-05-06 13:30 10.72560 78.75313 31775 ft 476 kts 327°
2026-05-06 13:31 10.78304 78.71950 31778 ft 477 kts 337°
2026-05-06 13:31 10.84458 78.69418 31772 ft 477 kts 338°
2026-05-06 13:32 10.90616 78.66900 31787 ft 477 kts 338°
2026-05-06 13:32 10.96773 78.64375 31788 ft 477 kts 338°
2026-05-06 13:33 11.02931 78.61838 31790 ft 477 kts 338°
2026-05-06 13:33 11.09088 78.59305 31795 ft 477 kts 338°
2026-05-06 13:34 11.15240 78.56769 31805 ft 477 kts 338°
2026-05-06 13:34 11.21398 78.54223 31811 ft 477 kts 338°
2026-05-06 13:35 11.27562 78.51682 31816 ft 478 kts 338°
2026-05-06 13:35 11.33725 78.49147 31806 ft 478 kts 338°
2026-05-06 13:36 11.39894 78.46601 31813 ft 478 kts 338°
2026-05-06 13:36 11.46057 78.44060 31808 ft 478 kts 338°
2026-05-06 13:37 11.52213 78.41509 31826 ft 477 kts 338°
2026-05-06 13:37 11.58369 78.38962 31813 ft 477 kts 338°
2026-05-06 13:38 11.64529 78.36426 31803 ft 477 kts 338°
2026-05-06 13:38 11.70683 78.33887 31803 ft 477 kts 338°
2026-05-06 13:39 11.75808 78.31772 31791 ft 478 kts 338°
2026-05-06 13:39 11.81965 78.29229 31796 ft 478 kts 338°
2026-05-06 13:39 11.85039 78.27957 31500 ft 475 kts 338°
2026-05-06 13:40 11.89148 78.26274 30551 ft 476 kts 338°
2026-05-06 13:40 11.92189 78.25049 29891 ft 476 kts 338°
2026-05-06 13:40 11.95270 78.23819 29094 ft 475 kts 338°
2026-05-06 13:40 11.97346 78.22993 28612 ft 474 kts 338°
2026-05-06 13:41 12.00399 78.21777 28049 ft 468 kts 338°
2026-05-06 13:41 12.03415 78.20570 27467 ft 463 kts 338°
2026-05-06 13:41 12.06397 78.19372 26902 ft 458 kts 337°
2026-05-06 13:41 12.09347 78.18184 26343 ft 453 kts 337°
2026-05-06 13:42 12.12267 78.17006 25802 ft 449 kts 337°
2026-05-06 13:42 12.15159 78.15841 25271 ft 444 kts 337°
2026-05-06 13:42 12.18021 78.14691 24928 ft 442 kts 337°
2026-05-06 13:42 12.20886 78.13540 24790 ft 442 kts 337°
2026-05-06 13:43 12.23751 78.12388 24832 ft 443 kts 337°
2026-05-06 13:43 12.26619 78.11235 24838 ft 443 kts 337°
2026-05-06 13:43 12.29485 78.10079 24842 ft 443 kts 337°
2026-05-06 13:43 12.32351 78.08921 24848 ft 443 kts 337°
2026-05-06 13:44 12.35216 78.07764 24856 ft 443 kts 337°
2026-05-06 13:44 12.38077 78.06611 24860 ft 443 kts 337°
2026-05-06 13:44 12.40946 78.05458 24862 ft 443 kts 337°
2026-05-06 13:44 12.43783 78.04318 24870 ft 443 kts 337°
2026-05-06 13:45 12.46653 78.03162 24873 ft 443 kts 337°
2026-05-06 13:45 12.52395 78.00843 24884 ft 443 kts 337°
2026-05-06 13:45 12.55258 77.99688 24890 ft 443 kts 337°
2026-05-06 13:46 12.58128 77.98531 24895 ft 443 kts 337°
2026-05-06 13:46 12.60995 77.97373 24900 ft 443 kts 337°
2026-05-06 13:46 12.63853 77.96215 24748 ft 440 kts 337°
2026-05-06 13:46 12.66694 77.95063 24201 ft 436 kts 337°
2026-05-06 13:47 12.69499 77.93929 23674 ft 432 kts 337°
2026-05-06 13:47 12.72287 77.92803 23097 ft 429 kts 337°
2026-05-06 13:47 12.75048 77.91690 22517 ft 425 kts 337°
2026-05-06 13:47 12.77785 77.90586 21970 ft 420 kts 337°
2026-05-06 13:48 12.80489 77.89494 21435 ft 417 kts 337°
2026-05-06 13:48 12.83174 77.88408 20923 ft 413 kts 337°
2026-05-06 13:48 12.85834 77.87333 20429 ft 409 kts 337°
2026-05-06 13:48 12.88465 77.86271 19952 ft 405 kts 337°
2026-05-06 13:49 12.91078 77.85214 19481 ft 402 kts 337°
2026-05-06 13:49 12.93672 77.84165 19008 ft 398 kts 337°
2026-05-06 13:49 12.96226 77.83134 18745 ft 388 kts 337°
2026-05-06 13:49 12.98657 77.82155 18623 ft 362 kts 337°
2026-05-06 13:50 13.00944 77.81234 18275 ft 346 kts 337°
2026-05-06 13:50 13.03144 77.80345 17848 ft 334 kts 337°
2026-05-06 13:50 13.05264 77.79486 17420 ft 323 kts 337°
2026-05-06 13:50 13.07322 77.78650 16976 ft 313 kts 336°
2026-05-06 13:51 13.09130 77.77504 16557 ft 302 kts 313°
2026-05-06 13:51 13.10262 77.75755 16149 ft 293 kts 289°
2026-05-06 13:51 13.10591 77.73728 15742 ft 286 kts 271°
2026-05-06 13:51 13.10600 77.71698 15330 ft 281 kts 271°
2026-05-06 13:52 13.10603 77.69709 14939 ft 277 kts 271°
2026-05-06 13:52 13.10605 77.67754 14549 ft 272 kts 271°
2026-05-06 13:52 13.10604 77.65821 14164 ft 268 kts 271°
2026-05-06 13:52 13.10604 77.63921 13781 ft 264 kts 271°
2026-05-06 13:53 13.10608 77.62048 13356 ft 261 kts 272°
2026-05-06 13:53 13.10614 77.60195 12927 ft 258 kts 272°
2026-05-06 13:53 13.10622 77.58387 12513 ft 255 kts 272°
2026-05-06 13:53 13.10633 77.56548 12085 ft 253 kts 272°
2026-05-06 13:54 13.10644 77.54753 11675 ft 251 kts 272°
2026-05-06 13:54 13.10654 77.52969 11269 ft 249 kts 272°
2026-05-06 13:54 13.10664 77.51223 10872 ft 247 kts 272°
2026-05-06 13:54 13.10674 77.49467 10477 ft 245 kts 272°
2026-05-06 13:55 13.10684 77.47723 10099 ft 244 kts 272°
2026-05-06 13:55 13.10695 77.45989 9695 ft 242 kts 272°
2026-05-06 13:55 13.10704 77.44263 9268 ft 241 kts 272°
2026-05-06 13:55 13.10713 77.42546 8846 ft 240 kts 272°
2026-05-06 13:56 13.10722 77.40841 8426 ft 239 kts 272°
2026-05-06 13:56 13.10732 77.39140 8008 ft 238 kts 272°
2026-05-06 13:56 13.10766 77.37447 7597 ft 236 kts 278°
2026-05-06 13:56 13.11354 77.35923 7189 ft 230 kts 312°
2026-05-06 13:57 13.12622 77.35001 6793 ft 223 kts 346°
2026-05-06 13:57 13.14130 77.34855 6402 ft 217 kts 15°
2026-05-06 13:57 13.15421 77.35567 6028 ft 211 kts 50°
2026-05-06 13:57 13.16310 77.36786 5977 ft 216 kts 57°
2026-05-06 13:58 13.17123 77.38095 5986 ft 218 kts 59°
2026-05-06 13:58 13.17921 77.39414 5981 ft 218 kts 59°
2026-05-06 13:58 13.18721 77.40737 5990 ft 218 kts 59°
2026-05-06 13:58 13.19522 77.42057 5999 ft 217 kts 59°
2026-05-06 13:59 13.20322 77.43375 5987 ft 217 kts 59°
2026-05-06 13:59 13.20976 77.44761 5985 ft 216 kts 82°
2026-05-06 13:59 13.20932 77.46295 6007 ft 217 kts 92°
2026-05-06 13:59 13.20882 77.47837 6003 ft 215 kts 90°
2026-05-06 14:00 13.20868 77.49322 6013 ft 198 kts 90°
2026-05-06 14:00 13.20859 77.50670 5999 ft 180 kts 89°
2026-05-06 14:00 13.20850 77.51927 5961 ft 174 kts 90°
2026-05-06 14:00 13.20840 77.53164 5811 ft 172 kts 90°
2026-05-06 14:01 13.20831 77.54371 5616 ft 165 kts 90°
2026-05-06 14:01 13.20822 77.55505 5431 ft 154 kts 90°
2026-05-06 14:01 13.20814 77.56593 5235 ft 151 kts 90°
2026-05-06 14:01 13.20805 77.57661 5052 ft 148 kts 90°
2026-05-06 14:02 13.20797 77.58710 4864 ft 147 kts 90°
2026-05-06 14:02 13.20788 77.59767 4679 ft 147 kts 91°
2026-05-06 14:02 13.20780 77.60810 4493 ft 146 kts 91°
2026-05-06 14:02 13.20772 77.61850 4297 ft 145 kts 91°
2026-05-06 14:03 13.20763 77.62887 4120 ft 145 kts 92°
2026-05-06 14:03 13.20755 77.63927 3930 ft 145 kts 91°
2026-05-06 14:03 13.20746 77.64959 3746 ft 144 kts 91°
2026-05-06 14:03 13.20738 77.65997 3564 ft 147 kts 92°
2026-05-06 14:04 13.20729 77.67046 3370 ft 147 kts 93°
2026-05-06 14:04 13.20720 77.68098 3166 ft 148 kts 93°
2026-05-06 14:04 13.20710 77.69151 3014 ft 143 kts 92°
2026-05-06 14:04 13.20707 77.69996 3011 ft 82 kts 89°
2026-05-06 14:05 13.20704 77.70261 3011 ft 23 kts 93°
2026-05-06 14:05 13.20687 77.70427 3011 ft 24 kts 103°
2026-05-06 14:05 13.20621 77.70582 3013 ft 21 kts 119°
2026-05-06 14:05 13.20605 77.70611 3013 ft 0 kts 120°
2026-05-06 14:06 13.20601 77.70617 3011 ft 3 kts 120°
2026-05-06 14:07 13.20578 77.70658 3011 ft 9 kts 122°
2026-05-06 14:07 13.20542 77.70717 3011 ft 11 kts 118°
2026-05-06 14:07 13.20528 77.70800 3011 ft 13 kts 91°
2026-05-06 14:07 13.20528 77.70900 3011 ft 17 kts 90°
2026-05-06 14:08 13.20526 77.71053 3011 ft 23 kts 91°
2026-05-06 14:08 13.20525 77.71222 3011 ft 24 kts 91°
2026-05-06 14:08 13.20524 77.71401 3011 ft 26 kts 91°
2026-05-06 14:08 13.20522 77.71586 3011 ft 26 kts 90°
2026-05-06 14:09 13.20518 77.71758 3012 ft 17 kts 111°
2026-05-06 14:09 13.20418 77.71789 3011 ft 16 kts 181°
2026-05-06 14:09 13.20306 77.71788 3011 ft 16 kts 180°
2026-05-06 14:09 13.20204 77.71778 3011 ft 10 kts 204°
2026-05-06 14:10 13.20183 77.71719 3011 ft 9 kts 268°
2026-05-06 14:10 13.20183 77.71686 3011 ft 0 kts 271°
2026-05-06 14:10 13.20183 77.71685 3011 ft 0 kts 271°
2026-05-06 14:10 13.20182 77.71678 3011 ft 3 kts 260°
2026-05-06 14:11 13.20167 77.71664 3011 ft 3 kts 206°
2026-05-06 14:11 13.20149 77.71662 3011 ft 3 kts 184°
2026-05-06 14:11 13.20128 77.71661 3013 ft 3 kts 181°
2026-05-06 14:11 13.20105 77.71661 3011 ft 4 kts 181°
2026-05-06 14:12 13.20078 77.71661 3011 ft 2 kts 180°
2026-05-06 14:12 13.20077 77.71661 3011 ft 0 kts 180°